Theta_e
324 324 325 326 326 327 328 327 327 328 329 329 329 330 329 328 327 326 329 331 332 332 333 332 331 330 329 329 328 327 331 330 328 327 328 329 330 330 330 328 328 328 331 329 329 331 333 333 333 334 333 332 332 331 333 332 332 333 332 332 330 329 330 330 330 330 326 325 327 326 326 327 328 329 327 328 328 329 330 329 329 328 327 328 329
322 322 323 323 324 324 325 325 326 324 325 325 325 325 325 325 325 326 328 328 330 331 331 331 331 332 332 331 329 328 329 328 328 329 329 329 329 329 329 328 327 327 330 330 331 329 328 328 328 329 331 331 331 332 331 332 331 330 331 329 331 330 329 330 330 328 324 323 323 323 323 323 324 326 326 327 328 328 329 328 329 328 327 328 329
319 320 321 321 322 322 322 322 322 323 323 323 324 324 324 324 325 326 326 326 328 331 330 330 331 332 331 330 330 329 329 331 330 331 331 329 329 329 329 328 328 328 328 330 330 329 329 329 329 330 330 330 330 329 330 329 329 328 329 327 327 330 330 331 329 329 325 325 324 320 319 318 320 322 325 326 326 327 328 327 328 328 328 329 328
317 318 318 319 320 320 320 320 320 321 321 321 322 322 323 323 324 324 325 326 326 328 329 330 332 331 332 331 330 330 329 331 329 329 329 329 328 329 330 329 328 328 328 329 329 328 328 329 330 330 331 332 330 329 329 328 329 329 329 329 329 325 327 328 331 330 328 326 319 319 319 318 316 319 319 323 326 327 326 326 328 328 329 329 329
316 316 317 318 317 318 318 319 319 318 319 319 320 320 321 321 322 322 323 324 325 327 327 328 328 327 328 327 328 327 325 325 324 323 324 327 326 326 327 329 328 327 328 328 329 328 329 330 330 331 332 331 331 329 329 329 330 330 330 329 328 327 325 328 329 330 328 329 325 320 318 315 316 319 318 321 324 324 325 326 327 328 328 329 329
316 316 316 317 317 317 317 317 317 317 317 319 319 320 320 320 321 321 321 322 322 323 325 325 324 323 322 322 321 321 320 320 319 319 321 322 323 325 327 327 327 326 326 327 327 329 328 329 330 331 331 330 330 330 330 329 329 328 330 329 328 329 327 326 326 329 330 330 329 328 325 319 318 321 319 315 322 324 326 326 326 327 328 328 329
315 315 316 315 315 315 315 316 316 316 316 318 318 318 319 319 319 319 318 319 319 319 321 323 320 321 321 321 322 321 319 319 320 321 321 322 323 324 324 325 325 324 325 325 325 326 327 327 328 329 329 330 330 329 328 328 328 328 329 328 328 328 327 324 324 325 328 328 329 329 328 327 325 320 316 319 316 321 323 325 326 327 327 327 327
314 314 314 315 315 314 313 314 315 315 316 316 317 317 316 316 316 316 316 318 317 318 318 320 318 318 319 319 321 319 319 318 318 318 319 321 320 321 322 321 323 324 324 324 323 324 326 327 327 328 327 328 330 329 329 329 329 329 329 329 329 328 327 325 325 326 324 324 328 327 327 328 327 326 324 320 318 315 318 325 327 327 327 327 328
314 313 313 313 313 314 314 313 314 315 315 315 315 315 315 315 314 314 314 315 315 316 317 317 320 318 318 317 317 318 319 318 319 319 318 319 317 318 318 319 320 322 323 322 321 322 324 323 322 322 322 324 325 324 325 326 326 326 328 328 328 329 329 329 327 326 326 325 325 325 326 325 326 326 326 324 318 316 316 318 320 326 327 327 328
313 313 313 313 313 313 314 313 313 313 314 315 315 315 314 313 313 312 311 312 313 313 314 315 316 318 317 316 315 315 316 316 316 315 315 315 314 315 316 317 318 319 321 319 318 317 317 317 317 316 317 319 321 321 321 322 323 324 324 325 326 326 329 329 327 327 327 327 326 325 323 323 323 322 323 322 322 320 316 317 320 319 319 323 327
312 312 313 313 313 312 313 312 311 313 314 314 314 314 314 313 311 310 310 311 311 311 312 313 315 317 317 316 315 314 314 314 313 312 312 312 311 312 313 315 317 318 319 317 314 312 313 313 312 312 313 314 315 315 316 317 320 322 324 325 325 325 326 327 327 328 328 327 326 326 324 323 321 319 319 321 320 318 318 318 319 321 320 320 325
311 310 311 312 312 312 313 311 311 311 312 313 313 312 312 311 310 309 310 310 310 310 310 311 313 315 316 316 315 314 314 313 312 310 310 310 311 310 312 313 314 316 317 315 311 310 310 310 310 309 309 309 309 310 310 311 313 315 319 321 323 325 326 326 325 325 325 326 326 326 324 324 323 322 323 322 320 319 319 318 319 321 321 322 325
309 309 310 310 310 310 311 311 312 311 310 311 311 312 312 312 311 309 308 309 309 309 309 310 311 312 313 313 312 312 311 311 310 309 309 309 309 310 311 311 313 313 314 313 309 308 308 308 308 307 307 308 307 306 307 308 308 310 313 317 319 320 323 324 324 324 325 324 324 325 325 324 324 325 325 323 323 323 320 317 320 322 318 320 323
309 309 309 310 310 310 311 311 311 311 311 311 311 311 311 311 311 310 308 309 309 308 308 308 309 310 311 311 310 309 308 308 308 307 308 308 309 309 310 310 310 311 312 311 308 307 306 306 306 305 305 305 305 305 305 305 305 307 309 311 312 315 318 318 320 321 324 326 327 325 325 325 325 326 326 325 323 321 320 319 319 320 321 319 323
309 309 309 309 310 310 310 310 310 310 309 309 309 310 310 310 309 308 308 308 308 307 307 307 307 307 308 309 308 308 307 306 306 307 306 306 307 307 308 309 309 310 311 311 308 306 305 304 304 303 302 303 303 303 303 303 303 304 307 307 309 311 312 313 315 317 319 322 324 325 324 325 325 325 325 324 325 324 323 321 319 315 316 318 318
308 308 308 309 310 310 309 308 309 308 309 308 308 309 309 309 308 307 307 307 308 307 306 306 305 306 306 307 307 308 308 306 305 306 306 306 306 306 306 307 308 309 310 311 310 307 305 303 303 302 301 301 301 301 300 301 301 301 303 304 305 307 306 308 311 313 315 318 320 323 324 324 326 326 326 325 326 326 325 324 322 319 315 313 317
307 308 308 308 308 308 308 308 308 308 308 308 308 308 308 307 307 306 306 307 307 306 305 305 305 304 304 306 306 306 305 304 304 304 304 305 305 305 305 305 306 307 307 308 307 307 304 303 301 301 300 300 300 300 299 299 299 299 300 300 301 302 303 304 306 308 310 313 316 318 321 323 325 326 326 326 326 325 325 325 325 322 319 314 313
308 308 308 307 307 306 307 307 307 307 307 307 307 308 307 306 306 306 305 305 305 305 305 304 304 304 303 304 305 305 305 304 304 303 303 303 303 303 303 303 304 306 306 305 305 304 303 302 300 299 299 299 299 298 298 298 298 298 299 299 299 300 300 301 303 304 306 309 312 313 315 317 322 324 325 326 326 325 325 325 325 324 323 318 317
305 305 305 305 305 305 306 306 307 307 308 307 307 307 307 307 307 306 304 305 305 305 304 304 304 304 303 303 304 305 305 304 304 303 303 301 301 301 301 301 302 303 303 303 303 301 300 299 299 298 298 297 297 297 298 297 297 297 298 298 299 299 299 300 302 304 305 307 308 309 312 313 316 319 323 325 326 325 325 325 325 325 323 322 319
304 304 304 304 305 305 305 306 306 306 306 306 306 306 306 306 306 305 304 304 303 303 304 303 303 303 303 303 303 304 305 304 303 302 301 301 301 300 300 300 300 301 301 302 301 300 299 298 298 297 297 297 296 297 297 296 297 297 297 298 299 299 299 300 301 303 305 306 307 308 309 312 314 316 320 323 325 325 325 325 325 324 324 323 322
303 303 303 303 303 303 304 305 306 306 307 306 305 305 305 305 304 304 302 302 301 302 302 302 302 302 303 302 302 302 302 303 303 303 301 301 301 301 300 300 300 299 300 300 299 299 298 298 297 297 296 296 296 296 296 296 296 296 297 298 298 299 299 300 301 302 304 305 306 307 309 312 314 316 318 321 323 325 324 325 325 325 323 323 322
303 303 302 301 301 301 303 305 305 305 304 304 304 304 304 303 303 302 302 301 301 301 301 301 302 301 301 301 301 302 302 302 302 302 302 301 301 300 300 299 298 299 299 299 299 298 298 297 297 296 296 296 295 295 296 295 295 295 296 297 298 298 299 300 301 302 303 305 307 307 309 308 310 312 315 318 322 324 323 323 324 323 323 322 323
302 301 300 299 300 301 303 303 303 303 303 303 303 303 302 302 301 301 301 300 301 301 301 301 300 300 300 300 300 300 300 300 300 300 300 301 301 301 301 299 298 298 299 299 298 298 297 297 296 296 295 295 295 295 295 295 294 294 295 296 297 298 299 300 301 302 303 305 304 305 306 306 307 307 309 310 313 316 319 322 323 324 323 323 322
301 301 299 299 299 301 302 302 302 302 302 302 302 301 300 300 300 300 300 300 300 300 300 300 299 299 299 299 298 298 298 298 298 298 298 299 300 300 301 298 298 298 297 298 298 298 297 296 296 295 295 295 294 295 295 294 294 294 295 295 296 297 298 300 301 301 302 303 303 303 303 304 305 305 305 306 308 307 307 311 319 323 322 322 323
299 299 298 298 299 300 301 301 301 301 301 301 300 299 299 299 299 299 299 300 300 300 300 299 299 299 299 298 298 298 298 297 297 297 297 298 298 299 300 298 297 297 297 297 297 297 296 296 295 295 295 294 294 295 294 294 294 295 295 295 296 296 298 298 300 300 302 301 301 301 301 302 303 303 303 303 304 302 303 305 307 314 321 322 322
298 298 298 298 298 299 299 300 301 301 301 299 299 299 299 299 299 299 299 299 299 299 299 299 299 298 298 298 298 298 297 297 298 297 297 297 297 297 298 298 298 296 296 296 296 296 297 295 295 295 295 294 294 295 294 294 293 294 294 295 295 296 297 297 298 298 299 300 299 299 300 301 302 301 301 302 302 300 299 300 302 305 309 318 321
298 298 297 297 297 296 297 299 300 300 299 298 298 298 298 298 298 298 298 298 298 298 298 297 297 297 297 297 297 297 297 297 297 296 297 296 296 296 297 297 298 296 296 295 295 295 296 295 295 295 294 295 294 294 294 294 293 294 294 294 294 295 296 296 297 297 298 298 298 298 299 300 301 301 300 300 300 298 297 297 300 301 303 304 311
298 297 297 296 296 295 296 296 297 297 297 297 297 297 297 296 296 296 297 297 297 296 296 295 295 295 295 295 296 296 297 297 297 296 296 296 296 296 296 296 297 296 296 295 295 295 295 295 295 294 295 295 294 294 294 294 293 293 293 294 294 294 295 295 296 296 297 297 297 297 298 299 300 301 300 299 299 297 297 296 297 298 299 300 303
296 296 296 295 295 294 294 295 295 295 295 295 295 295 295 295 296 296 296 296 296 295 294 294 294 293 293 294 295 295 295 295 296 296 295 295 295 295 295 295 295 295 296 296 295 295 294 294 294 294 294 294 294 294 294 293 293 293 293 293 293 294 294 295 295 295 295 296 296 296 297 298 301 303 300 299 298 297 296 294 295 296 297 298 299
295 295 295 295 294 294 294 294 294 294 294 294 294 295 295 295 295 295 295 295 295 294 293 293 292 292 292 293 293 294 293 293 293 293 294 294 294 294 293 293 293 293 293 295 293 293 293 293 293 293 293 293 293 294 295 294 294 293 293 293 293 293 294 294 294 294 295 295 295 295 297 301 300 300 299 297 295 295 296 295 295 295 295 296 297
295 295 295 294 294 294 294 294 294 294 294 294 294 294 294 294 294 294 294 294 294 293 293 292 292 292 292 292 292 292 292 291 292 292 292 292 292 292 292 292 292 292 292 292 292 291 291 292 292 291 292 293 293 294 293 291 292 293 294 293 292 292 294 294 294 294 293 294 294 295 295 298 298 298 297 295 294 294 293 293 294 295 296 296 297
294 295 295 294 293 293 293 294 294 294 294 294 294 294 294 294 294 294 294 294 294 293 292 292 292 292 291 291 291 291 291 291 291 291 291 291 291 291 291 291 291 291 291 291 290 290 290 290 291 291 291 292 292 294 291 292 292 291 293 293 293 292 293 293 293 293 293 293 293 293 294 295 296 296 296 294 294 293 292 292 292 293 294 295 296
293 294 294 294 293 294 294 294 294 294 294 294 294 294 293 294 293 294 294 293 293 292 292 292 291 291 291 291 290 290 290 290 290 290 291 291 290 290 290 290 290 291 290 290 289 289 289 289 290 289 290 291 291 293 291 291 291 291 291 293 292 292 292 292 292 293 293 293 293 293 293 294 295 298 296 293 292 292 293 293 293 294 295 296 294
294 294 294 293 294 294 294 294 294 294 295 294 295 294 294 294 294 294 293 293 292 292 291 291 291 291 291 290 290 290 289 289 290 290 290 289 289 289 289 290 290 290 289 289 289 288 289 289 290 289 290 291 291 293 291 291 291 291 291 292 292 292 292 292 292 292 292 292 292 292 292 292 293 293 293 292 291 291 291 292 293 294 296 297 297
293 293 293 293 293 293 293 293 293 294 294 294 294 294 294 293 293 293 292 292 292 291 291 291 291 290 290 290 290 290 290 289 289 289 289 289 288 288 289 290 289 288 288 288 288 288 289 289 289 289 290 290 291 292 291 291 291 291 291 292 292 292 292 292 292 292 292 292 291 292 292 292 291 291 292 292 291 290 291 291 292 293 294 296 297
294 293 293 293 293 293 293 293 296 295 294 295 294 293 293 292 293 292 292 291 291 291 290 290 290 290 290 289 289 289 288 288 288 288 288 288 288 288 288 289 289 287 288 288 289 289 288 287 288 288 289 289 290 291 291 291 291 290 292 293 292 292 292 291 291 291 292 292 292 292 292 291 291 291 292 290 291 291 291 291 291 292 294 295 297
294 294 294 295 295 295 294 295 294 294 294 293 293 293 293 292 292 291 291 290 291 290 290 291 290 290 290 289 289 289 289 288 288 288 288 287 287 288 288 290 287 287 287 287 288 288 288 287 288 288 289 289 289 291 291 291 291 291 292 292 292 292 291 291 291 291 291 291 291 292 292 291 291 291 291 289 289 291 290 290 290 291 292 293 294
294 294 295 295 295 295 295 294 293 293 293 293 293 293 292 291 291 290 290 290 290 290 290 291 290 290 290 289 289 289 289 289 287 287 287 287 287 288 288 289 286 286 287 286 288 287 287 288 288 287 290 288 288 291 291 291 291 291 293 292 292 291 291 290 290 291 291 291 291 294 295 291 290 291 290 289 289 291 290 290 290 290 290 291 292
294 294 293 293 294 294 294 294 293 292 292 292 292 292 292 291 291 290 290 290 290 290 290 290 290 290 289 289 288 288 288 287 288 287 288 287 288 288 288 287 287 286 287 287 290 287 287 287 288 288 291 289 289 291 292 290 291 291 292 293 292 291 290 290 290 290 290 290 290 292 293 292 292 291 289 289 289 290 290 290 290 290 289 289 291
294 294 294 293 294 294 293 293 293 292 292 292 292 292 293 292 291 290 290 290 290 291 290 290 290 290 289 289 290 291 289 288 287 287 287 288 289 287 287 286 287 286 286 286 287 287 286 287 287 287 288 288 289 291 292 290 291 291 291 293 292 291 289 289 289 289 289 289 290 290 291 290 289 289 289 289 289 289 290 291 291 289 288 288 291
293 293 295 293 293 293 293 293 293 292 292 293 293 293 292 292 290 290 290 291 290 289 289 290 289 289 290 289 288 288 289 288 288 288 290 289 287 287 287 286 286 286 286 286 286 287 286 287 287 287 288 288 290 291 291 290 291 291 291 291 292 291 290 290 289 289 288 288 288 289 290 291 289 289 289 289 289 289 290 291 290 289 289 290 291
294 295 294 293 293 293 293 293 292 293 293 293 293 293 292 291 290 290 291 289 289 289 289 289 290 290 290 290 289 288 289 290 290 288 287 287 287 287 288 286 286 286 286 286 286 287 286 286 287 287 288 287 289 291 290 291 290 290 290 291 291 291 291 290 289 288 288 288 288 289 290 290 289 289 289 289 289 289 289 291 289 288 289 289 292
292 293 293 293 292 292 292 291 292 292 293 293 293 292 291 291 290 291 289 289 289 289 290 290 290 290 291 290 289 290 290 291 290 288 286 287 286 286 286 287 285 286 285 286 286 286 286 286 286 287 287 287 288 289 290 290 290 290 290 290 290 290 290 291 289 288 288 288 289 289 291 291 289 289 289 289 289 289 290 289 288 288 289 289 292
293 293 293 293 292 291 291 290 291 292 293 293 293 292 291 290 290 288 288 289 289 289 290 291 291 291 290 290 291 291 289 289 289 288 288 286 287 287 287 286 285 285 285 286 286 286 286 286 285 286 287 287 288 288 289 290 290 290 290 290 289 289 290 290 290 289 289 289 289 290 290 289 289 289 289 289 289 289 289 289 288 289 289 290 292
292 292 293 293 291 290 290 290 290 291 292 292 292 291 291 290 289 288 290 289 289 289 290 290 290 290 291 290 290 288 288 288 288 288 289 289 288 287 286 285 285 285 285 285 286 286 286 285 286 285 286 286 287 288 288 289 289 290 289 289 289 289 289 289 290 290 290 290 289 289 289 289 289 289 289 289 290 290 289 289 289 289 291 290 290
293 292 292 292 292 291 290 289 288 290 291 292 291 292 291 291 288 290 288 289 289 289 290 289 289 289 290 289 289 288 288 288 289 288 288 286 287 289 288 286 284 285 285 285 286 287 286 286 286 285 285 286 287 287 288 289 290 290 290 289 289 289 290 290 290 290 289 289 289 289 289 289 289 290 290 290 290 290 289 289 289 290 289 289 289
292 292 292 292 291 290 290 289 289 288 290 290 291 292 292 289 290 289 288 289 290 290 290 288 289 288 288 288 289 288 288 288 288 288 288 289 288 285 286 289 286 284 285 286 286 287 287 286 286 286 286 286 286 287 288 288 289 289 289 290 290 290 290 290 291 291 290 290 290 289 289 288 289 289 289 289 289 290 289 290 290 289 289 289 289
293 292 292 291 291 290 290 290 289 288 290 290 290 290 290 290 290 289 288 289 290 290 289 287 288 289 289 288 289 289 289 288 287 286 287 286 285 284 284 287 288 288 287 286 286 286 286 286 285 285 285 286 286 287 288 287 288 288 289 289 290 290 289 289 290 289 290 290 289 289 289 290 289 289 289 289 289 289 289 288 289 289 289 289 290
291 291 292 291 290 290 290 291 290 289 289 290 290 290 290 290 290 289 289 290 289 289 288 287 287 288 289 289 290 290 289 287 287 286 286 286 286 286 286 286 284 285 286 288 287 286 288 286 285 285 285 286 286 286 287 288 289 288 288 289 289 289 289 290 290 288 290 290 289 288 288 288 288 287 287 288 288 288 288 288 288 288 288 288 288
292 292 291 291 292 291 291 291 290 289 289 290 289 290 290 290 290 289 290 290 289 288 288 287 287 287 287 288 288 287 287 287 286 286 287 288 286 289 287 287 286 289 288 287 287 287 287 286 286 287 286 286 286 287 288 288 288 288 288 288 288 288 288 289 289 288 289 288 287 287 287 287 286 287 286 286 287 287 287 287 287 287 288 287 287
292 290 290 290 290 292 291 290 289 289 290 290 289 289 289 289 289 289 290 290 289 289 288 286 288 287 287 288 287 286 285 286 285 284 285 286 286 285 287 288 289 290 288 285 284 284 285 286 286 286 287 288 288 288 288 288 288 288 288 288 288 288 288 288 288 288 288 287 286 286 286 287 286 287 286 286 286 286 286 286 287 287 287 287 286
Wind_Speed
8 8 9 10 10 9 8 9 8 8 8 9 9 8 8 7 9 8 5 6 6 5 5 4 4 3 2 3 3 2 3 4 5 4 4 4 5 4 4 3 3 3 3 2 3 4 4 4 5 4 2 3 3 4 4 3 3 4 4 3 4 4 4 4 5 5 4 4 5 7 7 6 8 8 8 7 7 7 5 7 7 6 8 8 8
9 8 8 9 9 9 9 8 9 10 7 10 9 7 8 8 9 6 6 7 6 5 4 3 3 1 2 2 3 4 4 5 5 5 5 5 4 5 4 3 3 3 3 3 4 3 4 4 4 4 4 3 3 3 4 4 4 4 5 5 3 5 4 3 2 1 2 2 7 6 5 5 6 6 8 9 8 7 7 7 8 8 8 8 7
11 9 9 9 10 10 9 8 8 8 8 9 7 9 9 8 8 6 6 7 6 6 5 4 2 3 2 1 3 4 4 4 5 5 5 6 6 6 5 5 5 5 4 4 4 4 4 4 5 5 3 3 4 4 4 5 4 4 4 4 5 3 4 2 3 4 4 3 3 4 4 5 1 2 5 8 8 8 7 8 8 9 10 8 7
10 8 8 8 9 8 9 9 7 8 8 8 7 8 7 7 6 6 7 6 6 6 6 5 4 4 4 4 5 5 5 4 5 6 6 7 8 7 7 6 6 6 5 5 4 4 4 4 5 4 4 4 4 4 4 4 4 4 4 5 4 6 3 2 5 5 6 4 5 2 2 1 7 3 4 5 8 11 10 10 8 10 9 9 6
10 10 8 8 9 8 9 7 7 9 7 7 6 6 5 7 6 7 6 7 7 6 5 4 5 6 5 6 4 4 4 4 5 7 6 5 6 7 7 6 6 6 6 6 6 6 5 5 5 5 5 4 3 3 4 5 5 5 6 5 5 5 6 4 2 4 5 4 4 5 3 2 3 3 4 5 6 8 10 11 11 11 11 10 9
10 10 9 6 7 7 8 7 8 7 8 7 6 6 7 7 7 7 7 6 6 5 4 5 7 6 5 4 5 5 7 6 7 6 6 6 5 3 6 7 6 6 6 7 7 6 6 6 6 5 5 5 3 4 4 4 4 5 5 5 6 6 7 7 4 2 5 5 6 6 5 7 9 6 6 6 0 7 8 10 12 12 11 10 10
8 9 8 8 7 9 8 9 8 9 7 5 7 7 7 7 7 7 6 6 5 5 5 5 7 6 6 5 4 5 7 5 2 2 3 3 4 5 5 6 7 7 7 7 8 7 7 7 7 7 6 6 5 3 3 4 4 5 5 4 4 5 5 6 6 5 5 5 6 7 8 7 7 7 6 7 10 2 5 7 9 12 11 11 13
9 8 8 8 7 7 7 7 8 7 5 6 7 6 7 7 7 7 6 6 5 5 7 6 6 5 6 5 4 4 4 4 3 2 2 2 4 6 5 6 7 7 7 9 8 8 8 8 9 9 9 8 8 8 8 6 5 4 5 5 5 5 5 7 8 5 6 4 6 7 7 6 8 10 12 11 11 13 8 4 7 9 9 11 12
9 9 8 7 7 6 6 7 5 6 6 7 6 5 5 5 7 7 7 6 6 6 7 7 6 5 6 5 5 4 3 3 3 3 4 3 5 4 5 5 6 6 7 9 9 9 9 9 10 10 9 8 8 8 8 8 9 9 8 6 6 5 5 6 7 7 7 7 3 2 4 6 6 8 9 9 9 12 13 10 9 6 9 10 10
8 10 9 7 5 6 6 6 5 5 5 6 6 6 5 5 8 9 9 7 7 8 8 8 7 5 6 6 6 5 4 3 4 5 5 5 6 7 6 6 6 6 6 9 10 10 10 9 9 9 9 9 8 8 9 9 9 9 8 8 8 9 6 7 7 6 6 6 9 10 9 6 7 6 6 8 10 12 14 11 9 9 9 8 9
7 8 8 5 3 3 6 7 4 4 4 6 6 6 6 7 9 11 7 7 8 9 9 9 7 7 7 6 7 6 5 5 6 7 6 7 7 7 7 6 6 6 6 8 10 10 9 9 9 9 9 9 8 9 9 9 8 8 8 8 7 8 7 8 8 8 8 8 7 6 6 6 8 10 10 9 9 9 8 10 9 10 11 11 9
7 8 7 4 4 5 6 6 4 4 6 7 7 7 6 6 7 10 9 9 9 10 11 9 8 8 8 8 9 9 8 8 8 8 8 8 7 7 6 6 6 5 7 7 10 10 9 8 8 8 8 8 8 7 7 7 8 8 7 7 8 8 7 7 6 7 8 7 7 5 7 8 10 10 9 8 9 10 11 13 11 8 9 9 8
5 7 7 4 4 5 7 6 4 5 5 5 5 5 5 6 7 10 10 9 10 10 10 9 9 9 9 10 9 9 10 9 9 9 9 8 7 7 7 6 6 7 7 8 9 9 8 9 9 8 7 7 7 7 7 8 8 7 7 9 9 10 9 9 9 9 8 8 8 8 8 9 10 10 9 9 10 12 13 13 12 10 11 8 7
5 5 8 5 4 4 5 5 5 5 7 6 6 6 4 4 7 11 10 9 9 9 9 9 10 9 9 10 9 9 9 9 8 9 8 7 7 7 8 8 8 7 7 8 7 8 9 8 8 8 8 9 9 9 9 9 9 7 8 9 9 9 9 10 8 10 9 9 7 8 8 8 8 7 8 9 10 10 9 9 10 10 9 10 7
5 6 7 6 4 4 4 5 5 6 6 5 5 5 4 4 8 11 10 9 9 9 8 9 8 9 9 9 9 8 8 8 8 7 8 8 8 8 8 7 7 8 8 7 8 10 10 9 10 9 10 10 10 10 9 9 9 8 7 8 7 8 9 9 8 9 9 10 10 9 9 8 8 9 9 10 11 10 11 11 11 11 9 8 8
6 7 7 6 4 4 5 6 6 6 6 5 5 4 5 7 10 10 9 8 8 8 8 8 8 8 8 9 9 9 7 7 7 8 8 8 8 8 8 8 7 7 7 8 8 10 11 11 11 11 11 11 11 11 11 10 10 9 8 8 9 7 9 10 8 9 10 11 11 10 9 9 9 10 9 9 9 10 10 9 12 12 11 10 6
8 7 6 6 5 6 6 7 6 7 7 6 5 6 7 8 9 9 9 7 8 8 7 7 8 8 9 9 8 8 9 9 8 9 8 8 7 7 8 8 8 8 7 8 9 9 10 11 11 11 12 12 12 12 12 11 11 10 8 10 10 11 10 10 9 9 10 11 10 12 10 10 10 9 10 10 11 10 10 9 8 8 9 10 8
8 7 6 6 6 7 6 6 7 8 8 7 7 7 7 7 8 9 8 9 7 7 7 7 7 8 8 8 8 7 7 8 8 8 7 8 8 7 7 8 9 8 7 8 9 10 10 12 11 11 11 12 12 11 12 12 12 9 10 9 10 11 11 10 10 10 10 10 10 11 10 10 10 11 10 10 10 10 10 9 8 10 9 9 9
8 8 7 6 6 7 7 8 8 8 8 8 8 8 8 8 8 8 8 7 6 6 6 6 6 6 6 7 7 7 7 8 8 8 8 9 9 9 9 8 8 8 9 9 9 10 10 10 10 11 10 11 11 11 11 11 12 11 12 11 11 11 10 10 10 10 9 9 11 12 11 10 11 12 12 10 10 10 10 10 9 8 9 10 10
8 8 7 7 7 7 7 9 9 8 8 8 9 8 9 8 9 8 8 7 7 7 6 7 6 7 7 7 7 6 7 8 8 8 8 9 9 9 9 10 9 8 8 9 9 10 10 9 9 9 10 10 10 10 10 11 11 10 11 10 11 11 11 10 10 9 8 8 10 11 11 10 11 11 11 11 11 10 10 10 9 9 9 10 10
9 9 8 8 7 7 7 7 7 7 8 9 8 9 7 8 8 8 9 7 7 6 6 6 6 7 7 7 7 7 7 6 7 8 8 9 9 8 9 7 7 9 8 8 9 10 9 8 8 9 9 9 9 10 9 9 11 11 9 9 10 9 12 10 10 11 10 10 10 11 12 12 12 12 11 11 11 11 11 8 8 8 8 9 9
10 9 8 8 6 7 7 7 8 8 7 9 7 7 9 8 6 7 7 6 6 6 6 6 6 7 8 7 8 7 7 6 6 7 8 8 8 8 7 8 9 8 8 8 8 8 8 8 9 9 10 10 10 10 9 9 12 12 12 9 10 12 12 13 11 11 12 10 11 12 13 14 14 14 14 14 12 12 12 10 8 8 7 10 9
10 10 8 7 7 7 8 8 9 9 8 8 8 8 8 7 7 6 7 6 6 6 6 7 8 8 8 8 8 8 8 8 8 8 9 8 8 8 8 9 8 8 8 8 8 8 8 8 8 9 9 10 10 10 9 10 13 14 14 12 12 11 12 12 13 13 13 12 12 11 12 12 11 13 13 13 14 15 14 12 12 8 8 10 9
9 7 7 7 8 8 9 9 9 8 8 8 8 7 7 6 6 6 7 6 7 6 7 8 7 8 8 8 8 7 9 9 9 8 10 9 8 8 8 9 8 8 8 8 8 8 8 8 9 10 10 11 11 11 10 10 12 13 13 13 12 12 12 12 12 12 13 12 12 12 12 12 12 11 12 13 12 11 12 14 14 11 10 10 8
9 8 8 9 9 10 9 8 8 8 7 8 8 7 6 6 5 7 6 6 6 6 7 7 7 8 8 8 8 8 9 10 10 9 9 8 8 8 7 8 9 9 8 8 7 7 8 8 10 11 11 12 11 11 12 12 11 11 10 10 11 12 13 13 13 12 13 12 12 11 12 13 12 12 12 13 12 15 13 11 12 13 11 9 8
11 10 10 10 9 8 8 7 8 8 8 8 7 7 6 6 6 5 7 6 6 6 6 7 6 7 7 8 7 8 9 9 8 8 8 7 7 8 8 7 8 9 8 8 8 8 8 9 10 11 11 12 11 11 11 13 12 12 10 10 10 10 12 13 13 13 13 12 12 12 12 12 12 11 11 11 11 15 14 14 15 13 13 12 10
12 11 9 9 9 8 7 7 7 7 7 7 7 7 6 6 6 5 5 6 5 6 6 7 7 7 7 7 7 7 7 7 7 7 7 7 8 8 8 8 7 7 8 9 9 9 8 8 9 10 11 11 11 11 12 14 14 14 11 11 11 11 12 10 11 12 13 13 13 12 12 11 11 11 11 11 12 13 12 15 13 13 13 12 13
9 10 11 11 10 8 8 7 7 7 7 7 6 6 6 6 6 4 5 5 5 7 7 7 7 7 7 7 6 6 6 7 7 7 8 8 8 8 8 7 7 8 8 9 10 9 9 8 8 8 10 9 11 10 12 15 14 13 13 11 11 12 12 12 12 12 12 12 13 13 12 12 12 12 12 11 11 10 11 13 12 11 12 13 11
11 11 10 11 10 8 8 7 8 8 9 8 7 7 6 6 5 5 6 6 6 7 7 7 7 7 6 6 6 5 6 7 7 8 8 8 8 7 7 7 7 7 7 8 9 8 9 9 9 8 8 9 10 10 11 14 14 14 12 11 11 11 13 13 14 14 12 12 12 12 12 13 16 19 20 16 14 14 11 13 14 12 13 12 12
12 11 11 10 11 10 9 9 8 10 9 8 7 7 7 8 6 6 6 4 7 7 7 7 7 6 6 6 6 6 7 7 8 8 8 7 7 7 7 8 8 8 8 8 9 8 8 8 8 9 8 8 9 8 17 21 19 15 13 10 9 10 12 13 13 14 13 14 14 13 13 21 22 21 21 18 16 15 14 11 11 12 13 13 11
12 12 11 11 11 10 9 9 9 10 9 8 8 7 7 7 6 6 6 5 7 8 7 7 7 6 6 7 7 7 8 8 7 7 7 6 6 6 7 8 8 8 9 8 8 9 9 8 8 8 9 8 8 10 21 18 19 22 15 11 10 10 11 12 13 13 14 15 14 14 13 16 18 19 20 21 20 22 22 20 18 17 14 11 13
12 12 12 12 11 11 11 11 10 9 9 9 8 8 8 7 7 7 6 5 7 7 7 7 6 6 7 7 7 8 8 7 7 6 5 5 5 7 8 8 8 9 8 7 9 9 8 8 8 7 8 9 8 16 18 20 20 20 20 12 9 9 10 10 12 13 12 13 14 14 13 12 13 17 19 18 22 25 24 24 23 21 18 14 12
12 13 13 13 13 12 12 11 9 10 10 9 10 10 9 8 8 6 5 7 7 7 7 7 6 7 7 7 7 7 7 6 6 5 5 6 7 7 8 8 8 6 6 8 8 8 8 8 8 8 8 9 8 15 18 20 19 20 19 15 9 9 9 10 11 13 14 14 14 14 14 13 12 22 18 17 20 22 26 25 24 22 18 17 17
11 13 13 12 11 10 11 11 10 9 9 8 8 10 8 7 8 6 7 6 7 6 7 7 7 7 7 7 6 6 6 5 5 5 6 7 7 7 6 6 6 7 8 8 8 9 8 9 8 8 7 8 9 14 18 19 18 19 18 13 9 9 9 10 11 11 12 14 14 14 14 14 15 16 15 18 21 20 20 20 18 16 15 17 17
13 13 12 12 13 12 11 9 9 9 7 8 7 8 8 8 7 8 6 7 6 7 6 6 7 6 6 5 5 5 5 5 5 6 6 6 6 6 7 6 6 7 7 7 7 8 7 7 8 8 8 8 8 17 16 18 17 18 18 11 10 9 9 10 10 10 11 13 14 13 15 14 15 15 15 22 20 20 20 17 17 17 16 14 13
14 15 14 14 15 15 14 12 9 9 8 9 9 8 9 8 7 8 6 6 6 6 6 6 6 5 4 4 4 4 4 5 5 6 6 6 5 5 6 6 6 7 6 6 7 7 8 9 9 9 8 9 9 15 16 17 18 18 17 8 9 10 10 10 10 11 11 12 13 14 14 15 16 17 21 25 23 20 18 18 17 16 16 15 12
11 13 13 13 14 14 12 11 9 9 10 8 7 8 9 8 8 6 7 6 6 6 5 4 4 4 3 3 4 4 4 4 5 5 5 4 4 6 6 5 7 7 7 8 8 8 7 7 8 8 8 8 9 13 16 17 17 19 14 10 10 9 10 10 10 11 10 12 13 15 15 15 17 17 23 24 24 23 16 17 16 17 16 15 14
11 10 12 12 12 12 11 12 11 10 9 8 7 9 9 8 7 6 7 6 6 5 4 4 4 3 3 3 3 4 4 4 4 3 3 3 4 4 5 5 6 7 8 8 7 7 7 6 7 8 8 8 9 12 16 18 18 18 15 10 9 8 10 11 12 10 10 12 14 22 20 17 18 19 24 23 23 20 16 16 15 18 18 17 16
14 15 15 14 13 14 12 11 11 11 8 8 8 10 9 8 7 6 6 7 6 5 5 5 4 3 3 3 3 4 4 3 3 2 2 3 3 3 3 4 6 6 6 6 6 6 7 7 7 7 11 10 9 10 15 17 19 18 15 9 8 10 12 12 13 13 14 13 13 15 23 20 19 21 23 22 22 20 15 15 14 15 16 16 16
10 10 12 12 12 13 12 12 13 11 9 9 9 9 9 8 6 6 6 6 6 6 4 4 4 3 3 3 3 3 2 2 2 1 2 3 2 3 6 6 6 5 5 6 6 6 7 7 7 7 7 8 9 10 11 17 18 18 18 11 8 10 12 14 13 14 14 13 14 14 16 18 22 23 22 22 21 22 16 14 13 13 15 17 16
14 13 13 12 12 14 15 14 12 11 9 9 9 9 8 7 6 6 6 6 5 4 4 4 4 4 4 3 3 3 3 2 1 1 1 2 3 4 5 5 5 5 5 6 7 6 7 7 7 7 7 8 7 10 12 17 17 18 19 15 9 11 10 11 11 12 12 12 13 13 9 17 23 23 22 22 21 21 20 14 12 13 14 18 19
10 13 13 13 12 12 12 10 10 11 10 8 9 9 8 7 6 7 7 4 5 5 5 5 5 4 4 4 4 2 2 3 1 1 3 3 3 4 3 4 4 4 6 6 6 6 6 6 6 7 8 9 10 13 10 13 17 17 17 18 9 8 11 10 10 9 11 12 11 10 10 17 23 22 22 22 22 21 21 13 16 21 23 23 17
12 10 11 13 12 13 13 12 10 10 9 8 10 10 8 6 7 8 5 5 5 5 5 5 5 5 4 4 4 3 3 2 2 2 3 3 2 4 3 3 4 5 5 6 7 7 7 7 7 7 7 8 8 9 13 11 15 17 17 16 17 12 14 8 7 9 11 11 10 12 12 21 21 22 22 22 20 22 17 16 23 23 22 23 17
12 13 13 14 13 11 11 10 9 9 9 8 10 9 7 7 8 4 4 4 5 5 5 6 5 5 4 4 4 3 3 2 2 2 2 2 1 1 2 3 3 4 5 6 6 6 6 7 8 8 8 8 8 7 8 14 13 16 16 16 16 16 15 9 8 7 8 8 8 11 15 20 20 21 21 21 19 19 17 22 22 24 22 19 13
15 14 12 12 13 13 12 10 8 9 8 8 8 11 8 8 6 5 5 5 5 5 6 5 6 6 5 4 3 3 3 2 1 2 2 1 0 0 1 3 3 4 4 5 5 5 6 6 7 8 8 8 8 8 7 10 15 15 16 15 16 16 16 15 9 8 9 9 13 18 19 18 18 19 20 18 16 18 21 21 22 22 19 12 13
11 10 11 12 13 13 13 11 7 8 8 7 8 10 10 7 5 5 5 6 6 6 5 6 6 5 6 5 4 3 1 1 1 1 2 2 1 1 0 2 3 3 4 4 5 5 6 6 7 7 7 8 8 7 8 9 9 9 10 14 16 14 15 15 12 10 13 16 16 17 18 17 16 16 14 13 12 15 18 20 20 21 13 12 12
15 12 12 12 13 12 12 11 10 6 8 7 8 8 9 6 7 6 6 6 6 7 6 5 5 5 4 5 5 5 3 1 1 1 0 0 1 2 1 1 2 3 4 4 5 5 6 6 7 7 7 7 7 8 8 10 9 8 7 8 8 9 11 11 9 8 9 9 13 13 12 14 12 15 15 14 15 17 15 16 14 14 13 12 12
12 10 12 11 12 12 12 11 10 8 7 8 7 7 7 7 6 6 6 6 6 7 8 6 6 6 6 5 5 5 5 4 3 3 3 3 3 2 2 3 2 1 2 4 4 5 5 5 6 6 7 7 8 8 8 8 9 8 7 6 6 7 9 8 9 11 10 9 9 10 11 8 10 11 12 12 13 13 13 13 13 13 13 13 14
12 11 13 12 11 12 11 11 10 7 7 8 7 7 7 8 7 6 7 6 6 5 6 6 5 5 5 4 5 4 5 5 4 3 5 5 4 4 5 5 6 5 3 2 3 3 2 3 4 4 5 7 7 8 8 9 9 10 9 7 7 7 8 9 11 14 9 9 8 7 9 10 10 12 12 13 13 13 13 13 15 14 13 13 13
11 9 11 11 11 12 11 11 9 7 7 8 7 7 7 7 7 7 7 8 7 6 6 6 5 5 4 5 4 5 4 3 4 5 3 4 4 7 5 4 5 3 5 4 4 3 2 3 4 4 2 2 5 6 10 13 14 14 14 14 13 13 14 12 14 16 10 8 10 10 10 10 10 11 11 12 12 12 12 13 13 14 13 13 13
11 11 10 11 10 10 10 10 9 6 7 8 8 7 6 6 7 8 8 8 7 7 6 6 5 5 5 5 5 5 4 4 4 4 3 3 5 3 4 8 9 8 6 6 7 9 7 5 3 4 6 5 6 8 12 13 14 14 15 14 14 14 16 16 15 10 10 9 9 8 9 11 10 10 10 10 11 12 12 11 12 12 11 13 13
Wind_Direction
87 73 73 77 76 79 84 83 81 77 79 83 75 69 68 74 72 59 43 46 54 47 43 50 48 43 56 67 61 342 32 52 46 25 25 20 15 6 351 355 347 351 337 325 306 304 318 327 327 317 292 264 261 262 266 282 279 286 275 251 272 278 258 222 236 236 273 282 234 253 263 245 245 237 233 235 229 228 219 217 215 210 214 212 207
86 73 68 74 76 77 74 71 73 74 64 75 72 68 67 65 68 64 48 54 50 56 63 67 37 50 80 68 114 60 41 42 36 26 21 23 28 25 13 2 358 337 327 324 319 321 324 326 319 301 282 262 261 265 285 283 307 311 310 297 224 263 275 201 214 135 256 260 305 309 275 256 244 235 233 238 240 236 229 226 220 217 219 215 206
93 86 79 81 77 74 77 75 70 73 71 71 72 70 63 60 60 57 54 54 45 44 48 49 33 41 88 151 112 86 34 50 56 38 35 39 31 28 18 17 14 12 2 350 347 342 334 318 313 308 285 253 261 264 268 281 276 268 278 289 298 246 261 222 200 184 285 260 253 293 302 329 337 237 244 243 239 238 231 232 228 227 226 217 212
102 95 90 85 83 81 78 73 73 73 66 64 62 67 65 62 58 55 52 51 49 40 48 40 50 60 62 80 64 75 85 76 65 45 41 39 34 24 26 22 19 20 13 8 0 345 335 326 320 314 298 250 243 259 269 275 275 281 274 282 282 299 291 267 201 204 218 271 301 211 271 219 300 282 258 248 225 233 227 231 229 234 231 225 210
105 105 100 95 87 81 88 94 86 77 70 68 66 65 73 70 62 59 54 48 41 35 32 53 75 57 41 52 55 57 43 41 45 37 30 38 40 27 19 18 22 25 20 18 11 2 351 350 332 319 308 294 252 256 278 292 301 293 288 284 280 280 288 284 251 211 228 219 262 304 303 269 238 290 341 280 200 225 232 232 232 232 231 225 220
110 105 101 82 86 80 67 63 70 73 70 65 67 66 66 62 58 53 52 44 38 31 36 55 54 60 70 82 69 65 54 32 36 26 17 28 29 5 25 21 22 24 26 20 12 6 8 1 356 346 331 319 288 271 278 293 294 300 289 289 290 278 284 287 281 219 235 226 220 230 249 286 303 310 319 301 170 216 226 226 231 230 229 227 226
90 95 92 84 77 85 75 78 74 68 54 57 60 56 59 66 61 55 51 40 26 28 37 59 64 61 62 67 73 82 89 69 45 22 30 17 19 35 31 20 20 22 22 22 13 7 10 9 9 9 3 354 331 291 296 295 294 290 293 279 262 266 264 272 262 269 266 238 234 231 239 240 246 276 281 298 290 233 224 231 232 235 234 232 232
107 96 90 86 80 79 82 84 80 82 81 71 66 59 55 55 56 53 45 42 27 23 34 39 66 64 70 67 63 64 79 97 85 67 45 53 42 36 25 25 19 20 23 23 15 9 12 13 13 14 14 4 8 3 349 333 315 301 294 280 269 257 258 267 275 253 263 253 207 234 234 242 243 242 248 258 283 289 278 226 242 236 231 233 231
113 106 92 84 95 91 85 77 74 86 83 79 78 74 71 66 66 60 51 39 27 30 39 34 42 58 71 74 71 51 63 77 91 74 63 41 56 33 30 23 22 21 29 28 20 16 20 19 16 15 13 6 12 5 359 355 350 343 337 319 309 295 272 270 270 277 263 261 332 279 250 254 264 258 264 255 263 281 276 267 262 229 232 237 232
87 93 91 84 80 91 84 78 63 63 73 82 80 81 77 78 71 65 51 40 33 33 34 34 32 34 50 52 61 49 45 47 59 54 48 36 45 29 18 21 13 17 27 33 24 22 24 23 20 18 13 6 10 1 359 356 351 346 340 333 329 324 313 303 297 299 306 290 261 263 256 246 244 255 244 257 251 243 265 270 259 257 249 235 223
95 89 83 71 53 70 84 81 68 59 71 84 81 75 73 68 65 63 56 50 42 40 38 34 31 34 41 41 46 43 35 45 43 39 33 36 37 29 24 16 11 14 22 35 31 19 18 22 23 19 18 13 7 5 2 349 345 338 331 322 315 313 311 303 296 281 270 273 283 270 271 285 288 286 275 256 253 262 265 263 263 246 247 259 226
105 105 97 98 86 83 71 66 51 51 57 59 61 59 63 70 73 69 50 45 41 38 38 32 33 31 34 36 40 36 36 40 43 40 31 35 34 31 21 21 16 17 26 38 29 15 11 14 20 19 19 10 11 358 355 351 346 339 336 332 326 315 303 304 306 305 306 302 299 297 287 283 277 271 273 282 287 283 276 277 274 269 252 241 245
115 121 115 103 94 87 84 72 57 55 57 62 63 73 70 77 81 76 57 47 43 38 37 33 35 31 34 40 38 36 36 35 39 38 28 29 23 23 23 24 19 19 24 35 33 17 16 13 15 13 6 6 4 1 353 355 355 348 335 335 337 335 333 327 315 301 284 275 274 262 256 253 254 259 258 261 260 253 251 259 262 256 259 256 241
124 122 113 107 95 88 83 79 69 58 54 50 52 59 66 75 76 73 60 47 45 44 41 41 37 36 40 45 43 38 36 37 38 38 30 26 21 21 22 19 18 12 12 33 23 23 24 22 17 14 9 6 4 360 358 0 356 349 343 344 339 333 334 335 328 325 315 300 289 293 288 280 280 269 264 269 273 277 270 262 272 262 246 254 248
141 113 105 107 102 98 93 81 72 67 60 54 59 71 71 62 65 64 56 45 50 50 48 45 39 38 40 45 46 44 41 37 37 40 36 32 25 29 24 20 18 12 12 28 23 20 14 12 12 12 7 2 360 358 354 351 353 346 340 339 329 333 332 327 325 326 320 315 306 295 289 282 273 266 264 263 264 261 262 266 263 266 263 246 248
127 117 112 102 101 96 79 72 74 72 68 58 63 77 80 68 66 66 65 60 58 59 54 51 46 43 40 46 47 46 44 44 44 43 39 37 35 34 30 25 20 15 14 19 23 22 14 8 7 6 2 3 3 0 356 351 349 346 339 341 335 341 332 329 328 325 321 322 316 310 296 291 285 282 272 265 259 260 261 261 260 252 256 261 239
118 119 108 100 89 69 75 84 83 79 72 74 73 74 76 72 74 71 69 65 64 65 63 57 53 48 41 41 41 46 46 45 46 43 39 35 35 36 34 31 29 26 23 20 14 20 16 11 4 4 4 2 1 359 355 354 349 345 343 342 343 342 337 335 333 330 326 323 321 320 315 307 299 293 285 277 266 260 260 262 254 254 259 259 264
115 104 101 103 99 95 92 91 94 93 94 87 79 73 73 77 82 87 77 75 68 68 65 60 58 53 46 41 39 44 53 53 49 50 45 46 40 36 34 30 26 26 30 27 26 23 19 16 12 10 6 7 3 360 357 354 350 349 348 349 345 342 339 336 336 332 326 326 323 323 319 313 311 303 297 290 276 269 266 260 254 244 241 251 254
119 118 115 108 106 106 106 103 98 96 94 92 84 80 78 73 74 78 82 79 78 74 71 60 57 58 52 47 44 43 50 55 54 51 49 49 43 39 39 33 24 26 29 30 30 30 24 18 15 11 7 5 2 1 357 355 358 356 353 347 343 340 335 328 327 330 328 328 327 323 320 314 314 309 304 297 289 279 269 258 253 246 244 243 250
129 121 115 112 105 106 110 108 106 106 100 88 86 81 79 78 78 80 78 74 70 64 63 63 51 56 51 47 44 48 52 57 54 52 50 47 45 42 37 35 29 27 29 28 35 31 22 18 13 11 7 4 1 360 357 354 355 356 350 344 341 333 328 328 324 324 321 316 319 321 318 316 315 310 306 305 300 290 278 269 255 250 246 243 244
133 125 121 112 106 103 97 98 99 92 90 88 84 88 83 77 76 73 78 72 68 60 61 56 49 46 47 44 43 47 52 55 60 56 55 50 45 42 41 36 34 35 26 30 30 26 21 16 13 13 9 5 360 359 359 353 358 350 340 335 331 330 335 326 325 324 323 324 320 321 322 320 321 315 310 306 302 298 295 273 259 252 247 244 242
131 125 120 114 111 106 105 104 98 88 86 93 86 86 84 79 75 78 72 64 69 55 55 50 51 51 50 47 46 48 50 51 55 49 51 49 46 44 37 36 39 29 27 28 27 24 21 16 17 13 11 8 3 1 359 359 359 352 344 338 338 333 339 338 330 326 327 329 326 328 338 343 338 332 330 326 318 307 298 291 271 260 253 254 233
131 127 123 120 118 116 107 103 99 98 96 92 91 84 82 82 77 72 75 63 65 64 59 62 57 54 53 51 52 50 49 49 50 46 43 39 37 38 38 39 36 31 26 26 20 23 18 17 19 15 12 11 4 1 360 359 0 359 352 348 339 335 333 332 337 338 338 340 342 339 340 340 341 339 340 338 340 337 323 302 288 270 266 261 246
117 117 116 121 121 117 111 106 103 102 101 98 94 87 80 76 78 77 74 68 62 62 64 64 65 60 57 57 54 53 52 49 50 45 45 40 37 35 36 39 34 31 29 21 22 18 19 16 16 13 13 10 5 2 360 360 0 358 355 349 342 340 336 336 337 338 339 340 340 339 342 339 337 339 342 342 342 338 336 331 314 285 267 268 255
128 129 130 124 121 118 118 118 113 111 104 101 94 91 89 85 83 84 80 74 69 64 66 64 66 64 55 55 51 49 50 48 48 44 43 39 35 34 32 35 31 29 23 19 17 12 19 14 15 13 9 10 5 1 360 357 356 354 348 345 345 348 350 345 342 340 339 340 340 341 338 338 341 339 341 343 342 340 334 328 327 325 303 268 259
139 139 131 126 124 117 119 118 115 116 117 105 98 95 88 81 71 73 78 69 65 63 62 64 60 64 59 54 51 48 46 46 45 42 35 31 30 30 28 27 27 24 18 18 17 11 14 11 13 10 9 9 4 2 1 358 354 353 348 346 345 341 347 350 348 344 341 339 339 337 339 338 341 344 338 336 340 340 336 329 327 328 327 313 281
146 138 127 121 118 123 120 112 119 122 109 107 109 102 98 92 78 69 73 76 69 70 64 67 65 66 64 57 53 52 49 46 42 37 32 27 25 23 21 19 16 15 18 14 12 14 10 11 8 8 8 6 3 1 2 360 355 353 347 346 343 342 344 346 346 345 345 344 339 336 334 336 338 343 341 338 338 337 334 326 323 324 323 325 319
135 132 135 132 128 122 116 119 119 107 101 99 95 103 105 101 95 80 77 78 75 76 72 68 68 64 62 60 57 53 50 47 42 36 31 27 22 18 14 8 6 10 13 13 10 8 6 8 7 7 6 4 3 3 5 2 356 351 349 344 345 346 344 345 346 346 346 344 342 339 337 335 337 343 342 337 343 333 327 321 321 323 324 325 318
144 142 134 132 130 126 125 123 118 113 110 109 107 103 98 89 87 91 86 85 86 81 73 70 66 65 59 61 57 51 47 44 39 36 30 24 20 14 13 11 14 13 11 12 11 8 6 5 4 3 0 3 7 4 6 1 357 352 349 346 347 345 347 347 348 347 345 343 344 342 337 332 335 339 338 338 337 334 329 322 320 323 324 320 312
149 145 141 135 130 131 134 128 126 122 120 117 113 110 108 107 103 97 92 88 86 79 78 71 69 67 65 63 61 55 51 47 42 37 33 29 24 22 20 22 22 20 18 15 14 11 11 8 3 1 2 4 4 4 359 357 1 359 349 348 345 345 349 350 346 345 345 345 344 342 335 335 337 337 337 336 333 328 323 311 308 316 316 313 304
149 143 140 135 132 134 134 131 131 128 126 122 118 115 109 106 108 105 98 96 92 85 76 78 75 69 70 65 61 57 54 50 46 44 40 34 26 20 24 25 24 21 17 14 14 16 13 6 6 1 2 3 359 3 358 355 357 359 358 351 350 344 345 350 349 344 342 342 342 340 336 336 338 338 338 338 334 332 330 325 318 308 295 288 298
152 145 137 136 136 139 139 139 137 133 128 125 122 120 115 115 113 108 109 100 89 87 87 82 80 72 67 66 62 59 57 50 50 46 37 29 21 23 23 20 19 17 12 11 18 13 11 7 4 0 3 1 356 360 357 356 356 357 358 354 350 346 344 344 347 346 342 342 340 339 338 336 336 339 340 337 334 333 331 327 323 317 310 294 249
154 146 143 144 146 147 144 141 140 139 134 136 132 125 124 126 116 122 113 93 90 92 92 85 78 77 70 65 63 63 61 56 50 42 32 25 22 17 12 9 9 3 6 17 11 10 9 5 5 1 356 356 349 355 356 356 354 354 352 354 352 345 343 341 341 344 344 344 343 340 339 337 336 339 340 338 338 333 329 327 321 316 310 312 314
153 146 147 146 142 142 144 146 146 142 136 137 132 127 130 126 122 120 106 99 97 88 89 85 78 73 70 65 65 68 66 61 48 42 36 30 23 16 5 2 5 4 14 12 10 10 6 7 3 358 344 354 351 355 354 354 352 351 349 350 351 346 343 341 341 340 342 344 344 342 340 338 338 338 336 339 337 332 330 326 324 322 318 317 316
154 148 148 147 146 143 142 140 140 138 132 120 116 122 124 120 124 114 110 110 106 102 90 89 85 78 78 75 73 70 68 55 45 41 38 31 22 11 10 4 10 10 13 10 7 5 3 3 359 357 353 353 353 351 352 353 352 351 345 350 351 348 344 343 340 339 339 344 344 342 342 340 339 337 336 338 334 332 330 324 321 319 318 313 309
160 152 151 147 148 148 149 149 144 135 135 133 135 136 126 130 124 119 118 113 112 103 98 93 93 94 95 98 93 79 67 55 48 42 39 25 19 12 14 359 10 8 9 11 12 11 7 360 355 354 351 354 346 346 353 354 353 352 346 351 350 350 347 341 342 342 340 347 346 345 346 343 340 337 338 335 334 333 329 327 323 319 319 316 306
150 147 147 146 144 144 146 141 142 139 135 137 139 130 127 126 121 124 117 116 110 109 114 114 120 126 120 108 101 93 76 64 53 52 36 25 17 12 13 10 18 11 10 11 7 3 353 354 350 351 351 351 347 347 353 356 356 354 353 354 352 348 347 344 341 339 341 346 348 349 349 347 342 340 338 334 334 335 332 330 326 324 320 318 311
138 136 135 137 140 137 143 143 142 140 139 140 140 132 129 126 127 127 119 117 117 128 138 138 151 154 129 114 105 96 87 72 65 63 49 25 19 16 22 12 28 12 13 3 354 356 351 352 353 352 353 355 345 345 356 357 358 358 356 354 350 347 344 345 341 337 343 347 348 350 352 349 345 341 336 335 335 338 335 330 329 328 327 324 319
150 148 143 141 143 145 146 141 139 138 147 145 139 133 129 131 134 132 127 129 138 147 152 154 166 160 133 115 101 94 100 93 83 60 52 42 22 25 356 13 23 21 10 353 352 358 351 355 356 352 355 0 346 349 357 357 358 360 1 353 353 349 349 346 345 345 350 348 347 350 350 345 344 340 336 337 337 341 334 332 332 330 327 323 318
142 137 136 136 136 134 139 143 148 152 153 147 141 134 135 137 140 133 133 150 161 166 170 155 147 140 131 117 112 109 112 125 125 64 46 39 10 28 20 22 17 17 2 357 354 358 358 354 347 352 353 352 350 347 356 357 359 358 1 358 349 357 351 344 346 350 349 348 349 347 342 342 342 341 340 341 340 342 341 335 337 334 329 324 319
148 145 137 135 142 145 151 155 153 150 153 151 139 134 139 141 141 141 162 172 157 148 142 146 138 130 124 120 115 133 138 160 166 122 61 49 38 38 26 28 12 1 6 8 7 358 357 352 351 352 354 356 353 352 352 358 358 358 357 2 352 355 349 345 343 348 351 347 346 343 327 341 343 342 343 342 343 344 345 344 341 334 324 317 319
134 141 139 137 142 145 147 146 148 152 154 150 142 140 143 143 145 167 186 158 142 144 140 139 144 146 143 139 140 148 150 151 140 100 74 47 23 38 41 26 6 7 11 9 3 0 355 347 347 354 0 353 349 352 355 352 357 356 355 355 358 347 349 345 346 349 350 350 342 339 336 339 341 344 345 345 344 347 346 354 342 336 333 337 335
141 145 146 138 137 143 148 152 156 154 155 153 143 143 149 151 164 189 177 154 147 143 141 145 149 151 159 162 166 159 160 156 129 115 103 65 15 33 20 21 22 15 15 11 5 357 354 353 356 1 357 354 350 348 354 354 353 355 353 350 349 348 349 350 351 349 349 342 342 342 339 343 343 345 346 345 346 349 354 350 346 345 342 342 341
149 148 149 139 136 140 142 148 154 157 157 154 146 146 152 160 187 175 158 143 131 141 139 143 156 163 162 168 171 166 155 136 132 111 89 81 22 0 2 17 12 26 15 11 2 352 354 359 359 358 0 354 349 351 343 356 355 352 348 348 345 343 349 350 346 347 340 337 335 343 342 339 344 347 346 346 346 354 354 351 353 350 348 348 349
152 152 149 140 139 142 142 146 154 157 160 158 152 147 158 174 190 151 158 151 140 141 143 150 158 165 170 174 158 160 164 147 127 125 132 152 345 31 6 342 17 16 17 14 351 350 358 349 354 1 352 350 347 345 351 349 352 350 347 345 343 344 342 349 349 343 346 342 337 335 338 342 345 349 348 349 351 353 352 356 359 356 354 356 354
138 141 146 140 136 138 141 146 156 159 160 160 157 148 158 189 162 158 152 148 142 143 152 165 163 162 169 160 153 174 194 189 139 136 179 176 183 195 219 315 6 0 5 9 350 352 354 354 356 353 350 342 341 348 353 352 353 344 346 344 342 342 342 342 342 338 338 340 342 341 344 346 351 354 355 358 355 354 352 360 2 2 1 358 357
148 150 141 136 137 139 144 147 155 173 156 160 155 165 162 155 155 148 142 143 147 148 151 153 159 162 160 157 157 176 195 203 211 207 243 191 170 184 189 284 281 345 360 360 351 352 352 353 356 346 343 338 349 352 356 356 354 349 343 337 340 337 340 343 340 342 341 345 343 343 344 341 346 346 356 357 359 358 2 4 5 4 1 0 0
140 142 139 136 139 144 148 150 156 172 160 155 158 157 153 148 143 139 137 142 148 148 149 159 164 166 166 163 164 179 177 195 220 215 237 263 260 153 200 231 250 284 339 342 343 342 349 349 338 336 336 346 351 354 356 353 339 335 331 333 332 340 346 350 350 347 343 340 337 330 338 346 351 359 3 7 7 5 3 2 3 2 3 1 358
143 148 143 145 146 146 152 152 158 165 157 152 157 154 149 149 150 147 148 148 145 140 135 143 153 152 165 161 169 177 182 189 217 248 247 221 215 205 222 264 253 212 201 232 289 297 310 297 288 308 332 346 350 351 342 327 330 340 348 344 345 350 352 355 351 349 344 347 343 342 353 355 0 0 2 4 4 4 3 3 3 4 3 2 2
145 142 141 140 146 147 153 155 158 162 159 154 158 161 162 155 154 160 164 142 141 138 136 152 160 158 152 151 164 181 184 192 202 222 268 298 245 219 203 208 269 255 227 242 200 229 271 310 302 279 206 295 316 305 316 337 348 351 351 353 350 354 2 3 357 350 358 356 355 354 358 357 356 360 360 1 2 2 2 2 1 0 3 3 3
146 137 140 143 149 150 149 152 159 163 161 156 161 162 156 162 167 175 160 138 143 141 148 156 159 169 167 165 160 165 185 193 216 219 217 253 315 322 244 236 246 265 259 231 234 250 268 272 236 296 306 289 292 327 345 346 350 353 354 355 354 354 2 3 2 358 2 4 358 357 355 357 357 357 1 358 358 1 3 0 0 1 4 2 2